GW4557 Weather Reports


time (UTC)temp
C
wind
direction
speed
KPH
gust
KPH
rain 1hr
cm
rain 24hr
cm
rain mn
cm
humidity
%
barometer
mb
20260510054704 13 95 8.0 11.3 0.00 0.05 0.00 92 1007.7
20260510054204 13 102 4.8 9.7 0.00 0.05 0.00 92 1007.7
20260510053704 13 74 8.0 11.3 0.00 0.05 0.00 92 1007.8
20260510053204 13 69 6.4 11.3 0.00 0.05 0.00 92 1007.8
20260510052204 12 63 8.0 9.7 0.00 0.05 0.00 92 1008.0
20260510051704 12 63 4.8 8.0 0.00 0.05 0.00 92 1008.0
20260510051203 12 59 3.2 8.0 0.00 0.05 0.00 92 1008.0
20260510050704 12 48 3.2 9.7 0.00 0.05 0.00 92 1008.0
20260510050205 12 64 4.8 9.7 0.00 0.05 0.00 92 1008.0
20260510045704 12 71 4.8 9.7 0.00 0.05 0.00 92 1008.0
20260510045204 12 64 4.8 9.7 0.00 0.05 0.00 92 1007.9
20260510044704 12 60 8.0 11.3 0.00 0.05 0.00 92 1007.9
20260510044203 12 58 9.7 12.9 0.00 0.05 0.00 91 1007.9
20260510043704 12 60 9.7 12.9 0.00 0.05 0.00 92 1007.8
20260510043204 12 54 9.7 12.9 0.00 0.05 0.00 91 1007.7
20260510042704 12 54 9.7 12.9 0.00 0.05 0.00 91 1007.7
20260510042204 12 59 9.7 12.9 0.00 0.05 0.00 91 1007.7
20260510041704 12 56 8.0 11.3 0.00 0.05 0.00 91 1007.7
20260510041204 12 48 8.0 16.1 0.00 0.05 0.00 91 1007.7
20260510040704 12 47 8.0 16.1 0.00 0.05 0.00 91 1007.8
20260510040204 12 37 11.3 16.1 0.00 0.05 0.00 91 1007.9
20260510035703 12 51 8.0 12.9 0.00 0.05 0.00 91 1007.9
20260510035204 12 71 9.7 12.9 0.00 0.05 0.00 91 1008.0
20260510034704 12 54 9.7 12.9 0.00 0.05 0.00 91 1008.0
20260510034204 12 52 8.0 9.7 0.00 0.05 0.00 91 1008.0
20260510033704 12 57 6.4 9.7 0.00 0.05 0.00 91 1008.0
20260510033204 12 50 6.4 8.0 0.00 0.05 0.00 91 1008.0
20260510032704 12 77 4.8 8.0 0.00 0.05 0.00 91 1007.9
20260510032204 12 94 3.2 9.7 0.00 0.05 0.00 91 1007.9
20260510031703 12 91 8.0 9.7 0.00 0.05 0.00 91 1008.0
20260510031204 12 103 4.8 8.0 0.00 0.05 0.00 90 1008.0
20260510030204 12 79 1.6 3.2 0.00 0.05 0.00 90 1008.2
20260510024704 12 187 4.8 4.8 0.00 0.05 0.00 90 1008.3
20260510024204 12 163 3.2 3.2 0.00 0.05 0.00 89 1008.4
20260510023704 12 88 1.6 3.2 0.00 0.05 0.00 89 1008.4
20260510023204 13 1 3.2 4.8 0.00 0.05 0.00 88 1008.4
20260510022704 13 340 3.2 8.0 0.00 0.05 0.00 88 1008.5
20260510022204 13 329 3.2 9.7 0.00 0.05 0.00 88 1008.6
20260510021704 13 335 4.8 9.7 0.00 0.05 0.00 88 1008.6
20260510021204 13 328 4.8 9.7 0.00 0.05 0.00 87 1008.5
20260510020704 13 341 3.2 12.9 0.00 0.05 0.00 87 1008.5
20260510015704 13 329 8.0 12.9 0.00 0.05 0.00 86 1008.6
20260510014704 14 1 6.4 9.7 0.00 0.05 0.00 86 1008.5
20260510013704 13 308 3.2 8.0 0.00 0.05 0.00 87 1008.5
20260510013204 13 310 3.2 8.0 0.00 0.05 0.00 86 1008.6
20260510012703 13 324 6.4 8.0 0.00 0.05 0.00 85 1008.6
20260510012203 14 294 1.6 4.8 0.00 0.05 0.00 83 1008.6
20260510011704 14 345 3.2 4.8 0.00 0.05 0.00 82 1008.6
20260510011204 15 16 1.6 9.7 0.00 0.05 0.00 81 1008.6
20260510010704 15 118 3.2 14.5 0.00 0.05 0.00 78 1008.7
20260510010204 15 61 4.8 14.5 0.00 0.05 0.00 78 1008.8
20260510005204 15 79 8.0 12.9 0.00 0.05 0.00 79 1008.9
20260510004204 15 108 9.7 22.5 0.00 0.05 0.00 80 1008.9
20260510003704 15 97 9.7 27.4 0.00 0.05 0.00 80 1008.9
20260510003204 15 110 14.5 27.4 0.00 0.05 0.00 81 1008.9
20260510002704 15 110 14.5 29.0 0.03 0.05 0.00 81 1008.8
20260510002204 15 118 16.1 29.0 0.05 0.05 0.00 80 1008.8
20260510001704 15 112 16.1 27.4 0.05 0.05 0.00 80 1008.9
20260510001204 15 117 14.5 33.8 0.00 0.05 0.00 79 1009.0
20260510000704 15 114 19.3 40.2 0.00 0.05 0.00 78 1009.0
20260510000204 16 102 20.9 40.2 0.00 0.05 0.00 77 1009.0
20260509234704 16 89 16.1 35.4 0.05 0.05 0.05 75 1009.0
20260509233704 15 93 19.3 33.8 0.05 0.05 0.05 76 1009.0
20260509232703 16 83 19.3 38.6 0.05 0.05 0.05 72 1008.7
20260509232204 16 80 22.5 38.6 0.05 0.05 0.05 71 1008.9
20260509231703 16 79 19.3 37.0 0.03 0.03 0.03 75 1009.0
20260509231204 16 119 11.3 25.7 0.00 0.00 0.00 76 1009.4
20260509230704 16 117 11.3 33.8 0.00 0.00 0.00 74 1009.5
20260509230204 16 123 20.9 33.8 0.00 0.00 0.00 75 1009.8
20260509225704 16 117 19.3 33.8 0.00 0.00 0.00 76 1009.8
20260509224204 16 125 14.5 29.0 0.00 0.00 0.00 76 1009.9
20260509223704 16 132 16.1 29.0 0.00 0.00 0.00 76 1010.0
20260509222704 16 132 14.5 25.7 0.00 0.00 0.00 76 1010.1
20260509222203 16 134 16.1 25.7 0.00 0.00 0.00 75 1010.1
20260509221204 17 146 16.1 37.0 0.00 0.00 0.00 73 1010.3
20260509220204 17 131 25.7 41.8 0.00 0.00 0.00 70 1010.3
20260509215703 17 124 16.1 29.0 0.00 0.00 0.00 70 1010.2
20260509215204 17 123 14.5 25.7 0.00 0.00 0.00 75 1010.1
20260509214703 17 124 12.9 24.1 0.00 0.00 0.00 80 1010.2
20260509214204 17 92 12.9 19.3 0.00 0.00 0.00 82 1009.9
20260509213704 17 62 8.0 11.3 0.00 0.00 0.00 82 1009.6
20260509213203 17 38 8.0 11.3 0.00 0.00 0.00 82 1009.5
20260509212705 17 22 8.0 11.3 0.00 0.00 0.00 82 1009.4
20260509212204 17 7 8.0 11.3 0.00 0.00 0.00 80 1009.4
20260509211704 17 353 8.0 11.3 0.00 0.00 0.00 80 1009.4
20260509211204 17 346 8.0 11.3 0.00 0.00 0.00 81 1009.4
20260509210704 17 337 4.8 9.7 0.00 0.00 0.00 81 1009.4
20260509210204 17 330 8.0 11.3 0.00 0.00 0.00 79 1009.5
20260509205704 18 334 6.4 11.3 0.00 0.00 0.00 78 1009.5
20260509205203 18 346 8.0 14.5 0.00 0.00 0.00 77 1009.5
20260509204704 18 348 8.0 14.5 0.00 0.00 0.00 77 1009.4
20260509204204 18 355 9.7 14.5 0.00 0.00 0.00 77 1009.4
20260509203703 18 346 8.0 12.9 0.00 0.00 0.00 77 1009.4
20260509203204 17 343 4.8 9.7 0.00 0.00 0.00 79 1009.4
20260509202704 17 350 4.8 11.3 0.00 0.00 0.00 79 1009.4
20260509201703 18 344 8.0 12.9 0.00 0.00 0.00 75 1009.5
20260509201204 18 346 8.0 11.3 0.00 0.00 0.00 75 1009.4
20260509200704 18 348 8.0 11.3 0.00 0.00 0.00 75 1009.4
20260509195704 18 339 8.0 12.9 0.00 0.00 0.00 76 1009.3
20260509195204 18 333 4.8 12.9 0.00 0.00 0.00 76 1009.3
20260509194704 18 322 8.0 16.1 0.00 0.00 0.00 75 1009.2
20260509194204 18 306 11.3 16.1 0.00 0.00 0.00 76 1009.1
20260509193704 18 303 11.3 12.9 0.00 0.00 0.00 79 1009.1
20260509192704 18 305 3.2 3.2 0.00 0.00 0.00 80 1009.0
20260509192204 18 310 3.2 4.8 0.00 0.00 0.00 81 1009.0
20260509191704 18 288 4.8 4.8 0.00 0.00 0.00 80 1009.0
20260509191204 18 279 4.8 4.8 0.00 0.00 0.00 81 1009.1
20260509190704 18 279 3.2 4.8 0.00 0.00 0.00 80 1009.1
20260509190204 19 274 3.2 3.2 0.00 0.00 0.00 79 1009.1
20260509185704 19 279 3.2 3.2 0.00 0.00 0.00 77 1009.0
20260509185204 19 269 3.2 3.2 0.00 0.00 0.00 73 1009.0
20260509184704 19 262 1.6 3.2 0.00 0.00 0.00 71 1009.0
20260509184204 20 291 1.6 3.2 0.00 0.00 0.00 67 1009.0
20260509183704 20 340 1.6 3.2 0.00 0.00 0.00 67 1008.9
20260509182704 21 103 3.2 8.0 0.00 0.00 0.00 67 1008.8
20260509182204 21 96 4.8 8.0 0.00 0.00 0.00 64 1008.8
20260509181704 21 96 3.2 8.0 0.00 0.00 0.00 62 1008.8
20260509181203 21 106 3.2 4.8 0.00 0.00 0.00 60 1008.8
20260509180704 21 100 4.8 4.8 0.00 0.00 0.00 63 1008.8
20260509180204 21 98 4.8 8.0 0.00 0.00 0.00 62 1008.8
20260509175203 21 93 3.2 4.8 0.00 0.00 0.00 60 1008.7
20260509174703 22 85 3.2 8.0 0.00 0.00 0.00 60 1008.6
20260509174203 22 82 3.2 8.0 0.00 0.00 0.00 58 1008.6
20260509173704 22 92 4.8 9.7 0.00 0.00 0.00 58 1008.6
20260509173204 22 96 4.8 9.7 0.00 0.00 0.00 60 1008.6
20260509172704 22 109 6.4 9.7 0.00 0.00 0.00 58 1008.7
20260509171703 22 87 3.2 9.7 0.00 0.00 0.00 57 1008.7
20260509171203 22 78 3.2 9.7 0.00 0.00 0.00 55 1008.7
20260509170704 22 123 3.2 11.3 0.00 0.00 0.00 55 1008.6
20260509170203 22 105 3.2 12.9 0.00 0.00 0.00 54 1008.6
20260509165704 22 95 6.4 12.9 0.00 0.00 0.00 52 1008.6
20260509165204 22 107 8.0 20.9 0.00 0.00 0.00 54 1008.6
20260509164704 22 115 12.9 20.9 0.00 0.00 0.00 53 1008.7
20260509164204 22 129 11.3 19.3 0.00 0.00 0.00 57 1008.7
20260509163704 22 117 9.7 16.1 0.00 0.00 0.00 55 1008.7
20260509163204 22 124 11.3 16.1 0.00 0.00 0.00 52 1008.7
20260509162704 22 94 8.0 19.3 0.00 0.00 0.00 54 1008.7
20260509162205 22 122 9.7 19.3 0.00 0.00 0.00 55 1008.7
20260509161704 23 122 6.4 19.3 0.00 0.00 0.00 53 1008.8
20260509161204 23 98 8.0 22.5 0.00 0.00 0.00 54 1008.7
20260509160704 23 144 12.9 22.5 0.00 0.00 0.00 53 1008.7
20260509160204 23 135 8.0 14.5 0.00 0.00 0.00 53 1008.7
20260509155704 23 119 8.0 19.3 0.00 0.00 0.00 52 1008.8
20260509154704 23 105 9.7 19.3 0.00 0.00 0.00 52 1008.9
20260509154204 23 84 8.0 19.3 0.00 0.00 0.00 51 1008.9
20260509153704 23 106 4.8 20.9 0.00 0.00 0.00 53 1008.9
20260509152704 23 133 11.3 16.1 0.00 0.00 0.00 52 1009.0
20260509152204 23 149 11.3 16.1 0.00 0.00 0.00 53 1009.1
20260509151704 23 154 8.0 19.3 0.00 0.00 0.00 55 1009.1
20260509151204 23 137 9.7 25.7 0.00 0.00 0.00 55 1009.2
20260509150703 23 135 11.3 25.7 0.00 0.00 0.00 53 1009.3
20260509150204 23 96 6.4 16.1 0.00 0.00 0.00 51 1009.3
20260509145704 23 121 8.0 22.5 0.00 0.00 0.00 51 1009.4
20260509145204 23 128 11.3 25.7 0.00 0.00 0.00 53 1009.5
20260509144704 23 127 12.9 25.7 0.00 0.00 0.00 51 1009.5
20260509144204 23 110 11.3 22.5 0.00 0.00 0.00 52 1009.5
20260509143704 23 120 16.1 22.5 0.00 0.00 0.00 51 1009.6
20260509143204 23 113 8.0 20.9 0.00 0.00 0.00 53 1009.6
20260509142704 23 107 11.3 20.9 0.00 0.00 0.00 53 1009.6
20260509142204 23 150 8.0 19.3 0.00 0.00 0.00 54 1009.6
20260509141704 23 161 9.7 22.5 0.00 0.00 0.00 54 1009.6
20260509141204 23 136 12.9 22.5 0.00 0.00 0.00 55 1009.7
20260509140704 23 148 9.7 27.4 0.00 0.00 0.00 56 1009.7
20260509140204 23 138 17.7 27.4 0.00 0.00 0.00 53 1009.7
20260509135704 23 138 12.9 24.1 0.00 0.00 0.00 54 1009.8
20260509135204 23 151 11.3 22.5 0.00 0.00 0.00 53 1009.8
20260509134704 23 158 12.9 24.1 0.00 0.00 0.00 54 1009.8
20260509134204 23 106 16.1 24.1 0.00 0.00 0.00 53 1009.9
20260509133204 23 109 14.5 24.1 0.00 0.00 0.00 52 1009.9
20260509132204 23 113 12.9 24.1 0.00 0.00 0.00 51 1010.0
20260509131703 23 109 9.7 25.7 0.00 0.00 0.00 52 1010.1
20260509130704 23 99 12.9 24.1 0.00 0.00 0.00 53 1010.2
20260509130204 23 138 9.7 24.1 0.00 0.00 0.00 56 1010.2
20260509125704 23 82 9.7 24.1 0.00 0.00 0.00 53 1010.3
20260509125204 23 122 11.3 24.1 0.00 0.00 0.00 52 1010.3
20260509124203 22 98 12.9 27.4 0.00 0.00 0.00 55 1010.4
20260509123704 23 112 19.3 27.4 0.00 0.00 0.00 53 1010.4
20260509123204 23 130 8.0 22.5 0.00 0.00 0.00 54 1010.4
20260509122704 23 153 16.1 24.1 0.00 0.00 0.00 54 1010.4
20260509122204 23 168 14.5 24.1 0.00 0.00 0.00 54 1010.5
20260509121705 23 121 14.5 24.1 0.00 0.00 0.00 52 1010.5
20260509120704 23 126 9.7 27.4 0.00 0.00 0.00 55 1010.5
20260509115704 23 116 16.1 27.4 0.00 0.00 0.00 55 1010.3
20260509114704 22 106 9.7 24.1 0.00 0.00 0.00 59 1010.3
20260509114203 22 86 6.4 25.7 0.00 0.00 0.00 57 1010.4
20260509113704 22 141 12.9 25.7 0.00 0.00 0.00 59 1010.5
20260509113204 22 126 9.7 24.1 0.00 0.00 0.00 58 1010.5
20260509112704 22 127 11.3 22.5 0.00 0.00 0.00 58 1010.6
20260509112204 22 141 12.9 22.5 0.00 0.00 0.00 59 1010.7
20260509111704 22 127 8.0 25.7 0.00 0.00 0.00 60 1010.8
20260509111204 22 125 4.8 25.7 0.00 0.00 0.00 60 1010.9
20260509110204 22 154 9.7 22.5 0.00 0.00 0.00 60 1011.0
20260509105704 22 125 11.3 24.1 0.00 0.00 0.00 62 1011.0
20260509105204 21 167 14.5 24.1 0.00 0.00 0.00 62 1011.1
20260509104704 22 138 14.5 24.1 0.00 0.00 0.00 60 1011.1
20260509104204 21 167 12.9 22.5 0.00 0.00 0.00 61 1011.2
20260509103704 22 159 16.1 24.1 0.00 0.00 0.00 61 1011.3
20260509103204 22 118 14.5 24.1 0.00 0.00 0.00 62 1011.3
20260509102204 21 111 11.3 22.5 0.00 0.00 0.00 63 1011.3
20260509101704 21 124 12.9 22.5 0.00 0.00 0.00 63 1011.4
20260509101204 21 127 9.7 22.5 0.00 0.00 0.00 64 1011.4
20260509100705 21 128 12.9 20.9 0.00 0.00 0.00 66 1011.5
20260509100205 21 157 12.9 22.5 0.00 0.00 0.00 64 1011.5
20260509095704 21 158 16.1 24.1 0.00 0.00 0.00 64 1011.5
20260509095204 21 164 17.7 24.1 0.00 0.00 0.00 65 1011.5
20260509094203 21 145 14.5 25.7 0.00 0.00 0.00 67 1011.4
20260509093704 20 154 16.1 25.7 0.00 0.00 0.00 67 1011.5
20260509093204 20 154 16.1 24.1 0.00 0.00 0.00 67 1011.5
20260509092704 20 158 9.7 24.1 0.00 0.00 0.00 69 1011.5
20260509092205 20 153 11.3 24.1 0.00 0.00 0.00 70 1011.6
20260509091703 20 155 14.5 22.5 0.00 0.00 0.00 70 1011.6
20260509091204 19 133 14.5 20.9 0.00 0.00 0.00 70 1011.5
20260509090704 20 150 9.7 16.1 0.00 0.00 0.00 70 1011.4
20260509090204 20 141 9.7 20.9 0.00 0.00 0.00 69 1011.3
20260509085704 20 135 9.7 20.9 0.00 0.00 0.00 70 1011.1
20260509085204 20 161 14.5 24.1 0.00 0.00 0.00 71 1011.1
20260509084204 19 159 16.1 24.1 0.00 0.00 0.00 71 1011.1
20260509083704 19 156 11.3 25.7 0.00 0.00 0.00 72 1011.0
20260509083204 18 157 11.3 25.7 0.00 0.00 0.00 72 1011.1
20260509082704 18 154 14.5 25.7 0.00 0.00 0.00 73 1011.1
20260509082204 18 158 16.1 24.1 0.00 0.00 0.00 74 1011.1
20260509081205 17 147 12.9 25.7 0.00 0.00 0.00 74 1011.3
20260509080204 17 141 16.1 29.0 0.00 0.00 0.00 75 1011.6
20260509075704 17 124 11.3 24.1 0.00 0.00 0.00 77 1011.6
20260509075204 17 153 16.1 24.1 0.00 0.00 0.00 77 1011.6
20260509074704 17 139 9.7 19.3 0.00 0.00 0.00 79 1011.6
20260509074204 16 143 9.7 22.5 0.00 0.00 0.00 81 1011.7
20260509072704 15 130 11.3 20.9 0.00 0.00 0.00 81 1011.6
20260509072205 16 125 11.3 24.1 0.00 0.00 0.00 81 1011.6
20260509071704 16 123 14.5 24.1 0.00 0.00 0.00 81 1011.6
20260509071206 15 127 11.3 24.1 0.00 0.00 0.00 82 1011.6
20260509070703 15 127 11.3 24.1 0.00 0.00 0.00 82 1011.6
20260509070204 15 134 14.5 22.5 0.00 0.00 0.00 82 1011.7
20260509065704 15 130 12.9 20.9 0.00 0.00 0.00 83 1011.7
20260509065204 15 129 11.3 20.9 0.00 0.00 0.00 84 1011.7
20260509064704 15 139 14.5 20.9 0.00 0.00 0.00 84 1011.7
20260509064204 15 135 11.3 20.9 0.00 0.00 0.00 84 1011.8
20260509063704 14 136 12.9 20.9 0.00 0.00 0.00 85 1011.7
20260509062704 14 133 9.7 14.5 0.00 0.00 0.00 86 1011.7
20260509062204 14 130 4.8 12.9 0.00 0.00 0.00 86 1011.7
20260509061704 14 136 8.0 11.3 0.00 0.00 0.00 86 1011.7
20260509061204 14 125 8.0 11.3 0.00 0.00 0.00 86 1011.6
20260509060704 13 123 4.8 9.7 0.00 0.00 0.00 86 1011.6
20260509055704 13 132 4.8 11.3 0.00 0.00 0.00 87 1011.6